Flag for Germany Weather past 2 weeks in Rastatt, Baden-Württemberg, Germany

Now
32 °F

Clear.


Feels Like: 24 °F
Forecast: 32 / 37 °F
Wind: 9 mph from Southwest

Location: Karlsruhe - Baden Wurttemberg

Current Time: Jan 31, 2015 at 11:57:31 PM

Latest Report: Jan 31, 2015 at 11:20 PM


Visibility: 10 mi

Pressure: 29.15 "Hg

Humidity: 93%

Dew point: 30 °F

Location of RastattLocation

Historic Weather in Rastatt — Graph

°F

Rastatt temperature yesterday

Maximum temperature yesterday: 39 °F (at 12:20 AM)
Minimum temperature yesterday: 32 °F (at 2:20 PM)
Average temperature yesterday: 35 °F

Past Weeks' High & Low Weather Summary

 TemperatureHumidityPressure
High41 °F (Jan 16, 10:20 PM)100% (Jan 17, 7:20 PM)30.45 "Hg (Jan 17, 7:20 PM)
Low27 °F (Jan 18, 5:20 AM)66% (Jan 31, 1:20 PM)28.77 "Hg (Jan 30, 12:50 AM)
Average35 °F88%29.86 "Hg
* Reported Jan 16 10:20 PM — Jan 31 10:20 PM, Rastatt, Weather by CustomWeather, © 2014

Note: Actual official high and low records may vary slightly from our data, if they occured in-between our weather recording intervals... More about our weather records

Advertising

Rastatt weather history for previous 24 hours

 ConditionsComfort  
Time TempWeatherWind HumidityBarometerVisibility
10:20 PM
Jan 31
30 °FClear.7 mph93%29.18 "Hg10 mi
9:50 PM32 °FPassing clouds.7 mph93%29.18 "HgN/A
9:20 PM32 °FPassing clouds.6 mph93%29.18 "HgN/A
8:50 PM34 °FPartly cloudy.7 mph93%29.18 "HgN/A
8:20 PM36 °FPartly cloudy.5 mph93%29.18 "HgN/A
7:50 PM34 °FPartly cloudy.5 mph93%29.15 "HgN/A
7:20 PM36 °FPassing clouds.7 mph93%29.15 "HgN/A
6:50 PM36 °FScattered showers. Partly cloudy.9 mph93%29.15 "HgN/A
6:20 PM36 °FScattered showers. Partly cloudy.6 mph93%29.12 "HgN/A
5:50 PM36 °FScattered showers. Passing clouds.10 mph93%29.12 "HgN/A
5:20 PM36 °FLight rain. Partly sunny.9 mph93%29.12 "Hg5 mi
4:20 PM36 °FLight rain. Broken clouds.10 mph87%29.09 "Hg6 mi
3:50 PM36 °FLight rain. Broken clouds.13 mph93%29.09 "Hg5 mi
3:20 PM37 °FLight rain. Partly sunny.16 mph81%29.09 "Hg5 mi
2:50 PM39 °FBroken clouds.10 mph70%29.06 "HgN/A
2:20 PM39 °FBroken clouds.10 mph70%29.06 "HgN/A
1:50 PM39 °FScattered showers. Broken clouds.10 mph70%29.06 "HgN/A
1:20 PM41 °FScattered clouds.12 mph66%29.06 "HgN/A
12:50 PM39 °FBroken clouds.12 mph70%29.09 "HgN/A
12:20 PM39 °FScattered clouds.10 mph70%29.09 "HgN/A
11:50 AM39 °FPassing clouds.13 mph70%29.09 "HgN/A
11:20 AM39 °FPassing clouds.13 mph70%29.06 "HgN/A
10:50 AM37 °FPassing clouds.13 mph75%29.06 "HgN/A
10:20 AM36 °FScattered clouds.12 mph81%29.06 "HgN/A
9:50 AM36 °FScattered clouds.13 mph81%29.06 "HgN/A
9:20 AM34 °FScattered clouds.13 mph87%29.06 "HgN/A
8:50 AM34 °FScattered clouds.9 mph87%29.06 "HgN/A
8:20 AM34 °FBroken clouds.10 mph87%29.06 "HgN/A
7:50 AM32 °FPassing clouds.9 mph93%29.06 "HgN/A
7:20 AM34 °FPassing clouds.9 mph87%29.03 "HgN/A
6:50 AM34 °FPassing clouds.9 mph87%29.03 "HgN/A
6:20 AM34 °FClear.12 mph87%29.03 "Hg10 mi
5:50 AM34 °FClear.12 mph87%29.03 "Hg10 mi
5:20 AM34 °FPassing clouds.9 mph87%29.03 "HgN/A
4:50 AM34 °FPassing clouds.7 mph81%29.03 "HgN/A
12:50 AM34 °FPassing clouds.7 mph93%29.00 "HgN/A
12:20 AM34 °FPassing clouds.8 mph93%29.00 "HgN/A
11:50 PM
Jan 30
34 °FPassing clouds.7 mph93%28.97 "HgN/A
11:20 PM34 °FPassing clouds.8 mph93%28.97 "HgN/A
Weather by CustomWeather, © 2014

See weather overviewHow to use our weather pages